Location: Bannatyne
(13.0833°N, 59.5333°W)
Time: 18:43:50
(UTC+00:00)

deb Explorer IX - Pass Details

Date: 26 January 2020
Orbit: 549 x 1099 km, 38.8° (Epoch: 25 February)

Event Time Altitude Azimuth Distance (km) Brightness Sun altitude
Rises 05:53:27 0° 327° (NNW) 3,886 - -64.6°
Reaches altitude 10° 05:57:49 10° 350° (N) 2,882 - -63.6°
Maximum altitude 06:01:26 14° 21° (NNE) 2,499 - -62.8°
Drops below altitude 10° 06:04:55 10° 53° (NE) 2,739 - -61.9°
Sets 06:08:51 0° 77° (ENE) 3,573 - -61.0°
